Temp_Advection
nan nan nan nan nan nan nan nan nan nan nan nan nan nan nan nan nan nan nan nan nan nan nan nan nan nan nan nan nan nan nan nan nan nan nan nan nan nan nan nan nan nan nan
nan -0 -1 -0 -0 -0 0 0 -0 -0 0 1 -0 -1 0 0 0 -0 0 0 -0 0 0 0 1 -0 0 0 0 0 0 0 0 1 0 0 -0 -0 0 0 0 0 nan
nan -0 -0 -0 -0 -0 -0 -0 -0 -0 0 0 1 2 1 -0 -2 -2 -1 0 1 1 0 0 1 0 0 -0 1 1 0 0 0 0 0 -0 -0 0 -0 0 0 0 nan
nan -0 -0 0 -0 -0 -0 -0 -0 -0 0 1 2 2 -0 -2 -2 0 0 0 1 1 0 1 1 -0 0 1 1 1 0 0 0 0 -0 -1 0 -0 -0 -0 -0 0 nan
nan -0 -0 -0 -0 -0 -0 -0 -0 -0 0 1 2 1 0 0 1 -0 -2 -1 0 1 0 0 1 1 0 1 1 0 1 0 -0 -0 1 1 -0 -0 0 0 -0 0 nan
nan -0 -0 -1 -0 -0 -0 -0 -0 -0 -0 0 0 1 1 0 0 0 0 -0 -2 -1 0 0 -0 0 1 0 1 2 1 -0 -0 1 1 -0 0 1 1 0 0 0 nan
nan -0 -0 -1 -1 -1 -1 -1 -0 -0 -0 0 -0 -0 0 1 0 0 0 -0 -2 -2 -0 1 1 0 0 1 1 1 1 1 0 1 1 1 0 -0 0 1 1 1 nan
nan -0 -0 -0 -1 -1 -1 -1 -1 -1 -0 -0 -0 0 0 0 0 1 0 -0 0 -1 -1 1 0 -0 0 1 1 1 1 2 1 1 1 1 1 1 0 1 1 1 nan
nan -0 -0 -0 -0 -1 -1 -1 -1 -1 -1 -1 -0 -0 -0 -0 -0 0 -1 0 1 1 -1 -1 1 1 1 -0 -1 0 1 2 2 2 1 2 2 1 1 1 1 1 nan
nan -0 -0 -0 -0 -0 -0 -0 -0 -0 -0 -1 -1 -1 -0 -0 -1 -0 -0 -0 1 0 -0 -0 0 1 1 1 1 1 1 1 1 1 2 4 1 1 1 1 2 1 nan
nan -0 -0 -0 -0 -0 -0 -0 -0 -0 -0 -0 -0 -0 -0 -1 -1 -0 -0 -0 -0 0 1 1 1 0 0 1 1 0 1 0 1 1 3 1 2 3 1 1 1 1 nan
nan -0 -0 -0 -0 -0 -0 -0 -0 -0 -0 -0 -0 -0 -0 -0 -1 -0 -0 -0 0 0 0 2 1 0 0 0 0 0 0 1 1 2 3 3 3 1 1 2 1 1 nan
nan -0 -0 -0 -0 -0 -0 -0 -0 -0 -0 -0 -0 -0 -0 -0 -1 -1 -0 -0 0 0 0 0 0 0 0 0 0 1 1 1 2 3 3 2 2 1 1 1 1 1 nan
nan -0 -0 -0 -0 -1 -1 -0 -0 -0 -0 -1 -1 -0 -0 -0 -0 -1 -0 -0 -0 0 0 -0 -0 0 0 0 0 1 1 2 2 3 2 1 1 0 1 1 0 0 nan
nan -0 -0 -0 -0 -0 -1 -1 -0 -0 -0 -0 -0 -0 -0 -0 -1 -1 -0 -1 -1 -0 1 0 -0 0 1 1 1 1 1 2 2 1 0 0 0 0 1 0 0 0 nan
nan -0 -0 -0 -0 -0 -0 -1 -1 -0 -0 -0 -0 -0 -0 -0 -0 -0 -0 -0 -1 -1 -0 1 1 1 1 1 1 1 1 1 0 0 0 0 1 0 0 0 0 1 nan
nan 0 -0 -0 -0 -0 -0 -0 0 -0 -0 -0 -0 -0 -0 -0 -0 -0 -0 -0 -0 0 0 0 0 0 0 0 0 0 0 0 0 0 1 0 1 0 1 0 -0 0 nan
nan -0 0 0 0 0 0 0 0 -0 -0 -0 -0 -0 -0 -0 -0 -0 -0 -0 -0 -0 0 0 0 0 0 0 0 0 0 0 0 0 0 0 0 0 0 0 0 0 nan
nan -0 -0 0 0 0 -0 0 0 -0 -0 -0 -0 -0 -0 -0 -0 -0 -0 -0 -0 -0 -0 0 0 0 0 0 0 0 0 0 0 0 0 0 0 0 0 0 -0 1 nan
nan -0 -0 -0 -0 -0 0 0 -1 -0 0 0 -0 -0 0 0 -0 -0 -0 -0 0 -0 0 -0 -0 0 -0 0 0 0 -0 0 0 0 0 -0 0 0 0 0 0 -0 nan
nan -0 0 0 -0 -0 -0 -1 -0 -0 0 0 0 -0 -0 -0 -0 -0 0 0 -0 -0 -0 -0 -0 0 0 -0 -0 -0 -0 -0 -0 -0 0 0 -0 0 0 0 0 -0 nan
nan -0 -0 -0 -0 -0 -0 -0 -0 -0 0 0 -0 -1 -0 -0 -0 -0 -0 -0 0 0 -0 -0 -0 -0 -0 -0 -0 -0 -0 0 0 -0 -0 0 0 0 0 1 0 -0 nan
nan -0 -0 -0 -0 -0 0 -0 -0 -0 0 0 -0 -0 -0 -0 -0 -0 -0 -0 -0 -0 -0 -0 -0 -0 0 0 0 -0 -0 -0 -0 0 0 0 0 0 -0 -0 0 0 nan
nan -0 -0 -0 -0 -0 -0 0 -0 -0 -0 0 -0 -0 -0 -0 -0 -0 -0 -0 -0 -0 -0 -0 -0 0 0 0 0 0 -0 -0 -0 -0 -0 -0 -0 -0 -0 -0 -0 0 nan
nan 0 0 -0 -0 -0 -0 -0 -0 -0 -0 0 -0 -0 -0 -0 -0 -0 -0 -0 -0 -0 -0 0 0 0 0 -0 0 0 0 -0 -0 -0 -0 -0 0 -0 -0 -0 -0 -0 nan
nan nan nan nan nan nan nan nan nan nan nan nan nan nan nan nan nan nan nan nan nan nan nan nan nan nan nan nan nan nan nan nan nan nan nan nan nan nan nan nan nan nan nan
Wind_Speed
14 15 19 20 23 25 26 26 28 28 30 26 31 35 38 37 37 36 37 34 32 30 30 31 30 30 31 31 29 27 27 26 23 20 19 19 20 20 19 19 19 20 18
8 5 11 15 20 24 27 27 29 30 30 32 31 36 36 41 41 39 37 39 37 34 34 34 34 32 33 34 33 33 30 30 27 23 13 9 16 23 23 23 23 22 22
6 6 6 6 3 9 19 26 30 30 32 34 33 33 35 37 37 42 40 37 40 41 40 38 37 35 35 37 37 36 34 32 29 30 20 9 11 12 22 27 26 26 25
6 7 8 9 8 7 5 8 15 25 34 34 34 30 32 38 43 43 43 42 41 41 44 42 41 39 37 39 39 38 33 32 34 34 34 31 15 9 8 21 27 28 28
6 7 9 10 10 10 9 8 8 12 19 33 35 27 27 26 27 29 37 43 44 41 41 45 44 42 40 39 40 40 37 36 38 38 36 36 34 27 17 11 20 28 30
5 7 10 12 12 12 12 13 12 11 12 18 28 32 27 25 24 24 27 28 32 37 41 41 44 46 45 42 40 41 43 42 41 41 41 38 34 35 32 24 19 21 25
6 9 11 14 15 15 16 16 15 14 13 12 14 23 29 28 26 26 27 27 31 36 38 36 39 42 46 45 43 43 45 50 45 44 43 40 38 35 31 32 29 21 23
7 9 12 14 14 14 14 15 15 15 16 15 16 17 17 21 28 30 29 25 24 27 31 35 36 38 41 45 46 46 45 48 50 48 46 42 39 37 34 31 31 26 21
7 9 11 12 11 12 11 12 12 11 13 15 17 17 18 20 21 24 27 30 27 27 26 28 31 33 35 40 45 48 49 48 48 51 48 44 42 38 36 34 30 28 20
8 9 11 11 9 10 10 11 11 12 13 13 15 17 18 20 22 24 26 27 27 24 26 25 28 30 32 35 41 44 45 46 46 47 48 45 40 38 36 34 33 30 26
9 10 11 11 9 10 10 11 12 14 13 14 13 11 11 14 18 20 23 25 25 25 25 25 25 26 29 30 33 38 41 42 41 41 44 41 39 37 34 34 30 30 28
8 9 10 9 9 10 9 9 12 13 14 13 14 12 10 10 12 16 19 21 22 22 23 23 21 23 25 26 28 30 33 36 36 37 39 36 34 33 32 28 27 26 24
9 9 9 9 9 9 9 9 10 11 10 11 12 15 13 11 13 14 12 13 14 13 14 15 15 18 21 22 23 25 28 31 33 35 32 31 32 29 26 25 23 20 18
9 8 8 9 11 11 10 10 9 9 9 10 10 9 11 12 15 16 14 12 12 15 14 13 15 17 19 21 21 24 26 27 27 27 28 27 23 22 21 19 16 17 17
8 9 10 10 11 10 8 9 9 9 10 10 7 7 8 9 10 12 13 14 14 16 16 15 16 15 16 18 20 21 21 21 22 20 18 17 18 16 17 17 17 16 15
7 6 7 7 8 10 10 10 10 10 10 10 8 6 6 8 8 8 9 9 9 14 18 22 14 11 11 11 10 13 15 16 14 14 14 15 16 15 16 16 16 11 11
4 5 5 8 9 10 9 10 10 10 10 8 6 4 4 5 5 5 5 4 3 3 5 5 5 4 4 6 9 12 13 13 13 14 14 13 14 13 12 10 10 11 13
2 6 6 8 8 7 8 9 8 9 10 10 8 7 6 6 6 6 5 5 4 2 4 5 8 10 11 11 12 11 10 10 9 9 10 10 7 7 8 10 11 14 15
6 6 9 11 9 10 10 11 11 11 11 12 12 13 12 11 12 11 9 9 8 9 10 10 10 10 12 10 9 8 7 6 6 3 2 3 4 7 9 11 13 13 12
7 9 11 13 12 13 14 15 17 16 16 15 15 15 16 15 16 16 14 13 13 14 13 12 10 7 8 9 6 3 3 2 0 2 4 6 7 7 8 8 10 11 14
9 10 10 12 14 14 15 17 18 20 18 18 18 19 19 19 18 17 15 13 12 11 10 7 6 7 6 7 6 5 3 2 3 5 7 7 8 10 11 11 11 14 17
9 9 8 9 10 10 11 15 17 17 16 17 18 18 18 17 15 13 13 11 9 8 9 8 8 6 6 3 4 4 4 4 5 6 8 10 11 11 12 13 16 16 15
10 8 7 8 9 9 9 11 13 12 13 14 15 14 14 14 13 12 11 10 9 7 6 5 4 3 3 5 6 7 8 10 10 10 11 10 10 12 13 12 11 10 10
12 10 9 8 8 9 9 9 11 10 10 11 12 12 10 10 9 8 8 7 6 5 4 3 4 5 6 7 7 8 8 9 9 9 10 10 11 11 10 8 8 8 8
16 14 12 11 10 9 9 9 9 8 7 7 8 9 8 7 6 5 5 4 3 2 3 4 5 5 6 7 7 8 7 8 10 11 10 10 10 9 8 8 8 8 10
19 18 16 15 13 11 10 9 8 7 5 5 6 7 6 5 4 3 3 3 4 5 5 5 5 6 7 8 10 11 11 11 11 11 11 11 10 8 8 7 8 9 11
Wind_Direction
273 274 272 265 260 253 251 249 245 246 246 240 245 250 248 246 246 247 247 248 247 246 244 241 241 234 236 239 238 236 233 232 233 240 243 246 244 241 238 234 234 235 235
276 290 279 273 264 255 250 247 245 243 243 244 243 247 248 248 249 246 245 243 247 246 248 247 242 237 237 235 235 235 233 230 230 236 227 233 247 241 238 236 233 234 236
108 66 42 31 351 264 252 247 243 242 242 242 246 241 244 247 247 247 250 249 247 245 245 247 246 242 239 239 237 234 232 231 228 234 227 205 223 219 236 235 234 233 237
74 46 36 28 18 9 334 272 257 251 244 240 241 239 237 244 249 251 252 249 248 245 243 246 243 246 245 240 239 235 232 229 230 230 232 232 228 204 229 235 235 236 239
42 25 16 5 357 346 332 323 290 272 258 245 241 239 240 244 250 252 255 257 256 254 251 250 250 248 249 247 241 234 227 229 231 232 232 230 233 236 231 231 236 236 238
18 10 356 347 339 329 320 311 307 300 284 257 245 245 243 244 245 246 250 251 255 255 255 253 251 248 248 248 248 241 231 230 233 236 237 238 238 237 234 232 238 242 240
1 354 347 342 335 330 319 307 297 291 289 278 259 248 248 249 249 246 249 251 256 258 259 261 255 252 249 250 249 244 242 235 237 239 241 241 240 246 247 243 243 237 241
351 346 344 340 334 334 327 313 301 289 277 271 265 262 263 264 259 255 251 252 251 258 262 262 262 260 250 247 247 247 247 244 239 240 241 241 242 241 243 245 246 236 236
344 339 343 337 331 331 329 317 314 311 296 279 272 270 268 265 265 266 263 261 256 256 259 262 262 262 257 251 246 247 246 247 244 241 241 241 240 239 240 240 232 229 233
340 343 344 340 334 327 317 314 316 306 303 301 289 278 274 272 268 265 264 264 260 257 260 259 260 261 260 256 252 248 246 245 245 241 238 235 233 236 235 233 234 238 234
339 339 344 341 339 328 313 310 312 309 302 286 294 300 298 290 279 275 272 266 261 257 257 260 261 258 258 258 257 253 250 249 248 244 240 234 237 236 233 234 233 234 228
338 345 350 346 332 326 323 320 319 312 310 304 284 291 303 304 293 272 266 265 262 259 259 261 264 261 259 257 256 253 252 247 246 241 236 231 230 226 230 226 226 232 233
341 351 352 350 337 340 337 335 331 331 323 306 295 276 277 292 307 312 294 280 273 266 270 264 262 266 262 256 254 250 244 240 236 235 227 223 218 222 228 234 237 245 255
349 347 351 354 346 348 351 353 348 346 347 342 331 298 277 278 285 293 299 307 311 312 301 287 276 260 258 253 248 244 236 231 227 222 221 225 225 227 234 239 247 255 256
343 352 353 347 331 335 346 342 336 332 329 327 321 321 331 319 303 293 286 285 287 297 305 299 281 274 261 252 247 236 226 218 212 205 204 215 230 234 242 249 249 253 259
348 346 338 327 335 343 341 343 352 352 356 348 330 314 331 323 333 324 314 299 296 274 275 278 270 265 253 250 234 227 201 190 196 204 214 221 233 240 245 247 254 276 287
357 324 345 357 354 345 349 6 18 19 22 19 15 10 351 342 335 332 328 321 311 267 250 245 247 228 189 163 166 176 181 188 200 213 220 225 231 235 249 279 278 271 271
61 24 12 13 4 3 25 45 48 39 41 49 52 55 38 36 30 29 39 50 50 81 119 133 136 144 147 161 174 184 188 186 183 207 215 225 252 279 275 272 275 274 278
71 54 50 55 49 51 59 70 69 61 63 63 61 61 59 58 59 64 73 84 96 107 113 121 130 138 138 146 157 167 160 171 193 216 243 253 273 278 264 266 272 280 279
99 77 74 71 69 70 72 75 79 80 78 74 72 71 74 78 84 89 93 99 107 114 124 127 126 124 136 141 145 151 81 82 215 284 297 300 288 275 266 274 273 277 282
119 102 88 81 77 79 82 82 81 79 78 81 81 81 82 82 83 91 98 102 105 110 108 103 102 101 103 100 83 74 49 345 309 301 300 289 285 277 266 270 279 281 286
134 128 116 99 93 90 92 94 89 87 88 90 90 89 89 88 90 93 98 99 98 99 95 87 82 76 78 61 360 334 317 298 294 294 296 294 295 287 279 278 277 281 283
152 150 143 133 129 122 118 107 100 101 103 100 97 93 91 94 96 97 97 98 97 93 89 78 56 25 342 324 317 310 317 317 309 301 292 289 293 291 292 289 284 285 284
177 175 173 167 155 146 135 125 109 106 107 104 103 101 100 98 98 95 92 85 76 59 36 4 331 316 311 309 304 299 299 297 298 300 300 298 298 296 294 293 288 283 283
193 192 193 193 184 168 155 143 131 123 125 120 115 112 110 107 102 98 94 86 54 6 327 311 304 302 300 297 296 305 313 310 303 311 308 307 305 301 299 295 291 288 288
203 200 201 201 196 185 178 168 159 151 153 149 136 130 124 116 107 90 60 27 353 344 333 322 320 322 310 308 304 302 308 309 305 306 300 298 296 292 289 291 291 294 297
Height
1499 1497 1496 1496 1496 1497 1498 1500 1501 1503 1506 1506 1506 1506 1507 1509 1510 1512 1514 1515 1517 1518 1519 1520 1522 1524 1524 1527 1529 1531 1532 1534 1536 1538 1538 1537 1538 1537 1538 1537 1538 1538 1539
1494 1493 1492 1490 1490 1491 1492 1493 1495 1497 1498 1498 1499 1499 1501 1501 1503 1504 1506 1508 1510 1512 1512 1513 1514 1516 1517 1519 1522 1523 1525 1527 1530 1533 1535 1535 1534 1532 1532 1532 1533 1534 1534
1492 1492 1490 1488 1487 1486 1485 1486 1487 1488 1490 1491 1492 1492 1493 1493 1494 1496 1499 1501 1502 1504 1504 1506 1506 1509 1510 1511 1513 1515 1517 1520 1524 1526 1529 1528 1527 1526 1526 1527 1528 1529 1529
1492 1491 1489 1488 1487 1484 1482 1481 1480 1481 1482 1483 1483 1484 1484 1484 1486 1489 1490 1492 1493 1494 1496 1497 1499 1501 1502 1503 1504 1507 1510 1513 1515 1518 1519 1520 1521 1521 1522 1522 1522 1524 1524
1491 1489 1488 1486 1485 1483 1481 1479 1477 1475 1474 1475 1475 1477 1478 1480 1481 1482 1482 1483 1485 1486 1488 1489 1491 1493 1495 1496 1498 1500 1502 1504 1506 1508 1511 1512 1514 1516 1517 1516 1516 1517 1518
1490 1488 1486 1485 1483 1480 1478 1475 1473 1472 1470 1469 1470 1471 1472 1474 1475 1476 1476 1476 1475 1476 1478 1480 1481 1483 1486 1487 1490 1492 1494 1498 1498 1501 1503 1505 1506 1508 1510 1511 1511 1512 1512
1488 1486 1485 1482 1479 1476 1474 1471 1470 1469 1468 1467 1465 1465 1466 1467 1468 1469 1470 1470 1469 1468 1469 1471 1472 1473 1476 1480 1481 1483 1486 1488 1491 1493 1496 1498 1500 1502 1504 1505 1505 1507 1506
1487 1484 1481 1478 1475 1472 1469 1467 1466 1464 1463 1462 1461 1460 1460 1460 1461 1461 1462 1463 1464 1462 1462 1463 1464 1465 1467 1469 1472 1474 1477 1479 1482 1485 1487 1491 1493 1494 1496 1497 1501 1501 1501
1483 1481 1477 1475 1473 1470 1467 1464 1462 1460 1458 1457 1456 1455 1455 1455 1455 1455 1455 1454 1455 1455 1456 1456 1457 1458 1459 1460 1461 1463 1466 1469 1471 1475 1478 1481 1483 1485 1488 1490 1492 1493 1496
1479 1477 1475 1473 1470 1467 1464 1462 1458 1456 1455 1453 1452 1451 1450 1450 1450 1449 1449 1449 1449 1449 1449 1449 1449 1450 1451 1452 1454 1455 1457 1459 1462 1464 1467 1470 1474 1477 1479 1481 1483 1489 1488
1477 1475 1471 1469 1467 1464 1461 1458 1455 1454 1452 1451 1449 1448 1447 1446 1445 1445 1444 1444 1443 1443 1443 1443 1443 1443 1443 1444 1446 1449 1452 1453 1456 1459 1462 1457 1463 1465 1472 1473 1478 1478 1480
1475 1472 1468 1466 1463 1460 1457 1454 1453 1451 1448 1447 1446 1445 1444 1443 1441 1440 1439 1438 1438 1437 1436 1436 1438 1439 1438 1438 1439 1441 1443 1446 1450 1452 1454 1456 1460 1465 1468 1470 1471 1472 1473
1471 1468 1466 1463 1460 1456 1454 1452 1450 1448 1445 1444 1442 1441 1441 1440 1439 1437 1436 1435 1434 1432 1431 1432 1433 1435 1435 1436 1435 1436 1438 1440 1442 1445 1449 1453 1457 1460 1462 1469 1468 1471 1471
1467 1465 1463 1460 1456 1455 1452 1449 1447 1445 1443 1441 1439 1438 1437 1435 1435 1434 1432 1432 1431 1430 1430 1429 1430 1431 1431 1432 1431 1432 1432 1436 1439 1443 1448 1452 1456 1460 1462 1465 1466 1467 1470
1465 1461 1459 1459 1458 1454 1450 1447 1445 1442 1440 1438 1436 1435 1434 1432 1431 1430 1429 1429 1428 1427 1426 1427 1428 1428 1429 1430 1430 1431 1432 1433 1438 1442 1447 1452 1457 1457 1460 1461 1462 1462 1462
1463 1462 1460 1460 1456 1450 1447 1445 1443 1440 1437 1435 1434 1434 1433 1431 1431 1429 1427 1426 1425 1425 1424 1426 1428 1428 1428 1429 1432 1436 1435 1436 1441 1445 1449 1451 1453 1454 1457 1459 1458 1458 1460
1462 1462 1459 1455 1451 1449 1446 1444 1440 1438 1436 1435 1435 1433 1432 1431 1430 1429 1427 1426 1425 1425 1426 1427 1428 1428 1429 1431 1435 1440 1440 1440 1443 1446 1448 1447 1451 1451 1451 1454 1456 1454 1454
1461 1458 1456 1452 1450 1448 1446 1443 1440 1439 1438 1437 1436 1434 1432 1430 1430 1429 1428 1428 1428 1429 1429 1431 1432 1433 1434 1436 1439 1441 1441 1441 1442 1445 1449 1449 1448 1448 1450 1452 1452 1453 1449
1458 1457 1454 1452 1451 1449 1447 1444 1441 1441 1440 1439 1438 1435 1434 1433 1432 1432 1431 1432 1432 1434 1435 1437 1438 1440 1439 1438 1440 1441 1440 1442 1444 1447 1448 1448 1447 1448 1450 1450 1448 1447 1447
1458 1457 1456 1454 1453 1451 1449 1446 1444 1443 1442 1441 1440 1439 1437 1436 1435 1436 1437 1438 1439 1439 1441 1442 1443 1443 1442 1443 1442 1444 1444 1444 1445 1447 1447 1447 1446 1446 1447 1446 1445 1445 1445
1458 1458 1458 1456 1455 1454 1452 1450 1448 1446 1446 1445 1444 1443 1442 1442 1442 1442 1443 1444 1445 1445 1446 1446 1447 1446 1446 1446 1446 1446 1446 1446 1447 1446 1446 1446 1444 1444 1443 1441 1441 1441 1440
1457 1458 1459 1457 1457 1457 1455 1453 1452 1451 1450 1449 1449 1448 1448 1447 1447 1448 1449 1449 1449 1449 1449 1449 1449 1449 1449 1448 1447 1447 1447 1447 1446 1445 1444 1442 1441 1440 1439 1438 1437 1436 1435
1456 1458 1458 1458 1458 1458 1458 1456 1455 1454 1453 1452 1451 1451 1451 1451 1451 1452 1453 1453 1453 1453 1452 1452 1452 1451 1449 1448 1447 1446 1446 1445 1444 1443 1441 1439 1438 1436 1435 1434 1433 1432 1431
1455 1456 1458 1458 1457 1457 1457 1457 1456 1456 1456 1455 1454 1454 1454 1454 1455 1455 1455 1455 1455 1454 1454 1453 1452 1451 1449 1448 1447 1446 1445 1443 1442 1440 1438 1436 1435 1433 1432 1430 1429 1428 1428
1452 1454 1456 1457 1457 1457 1457 1457 1457 1457 1457 1457 1456 1456 1456 1457 1457 1458 1457 1457 1457 1456 1454 1453 1451 1450 1449 1447 1446 1444 1443 1441 1439 1437 1435 1433 1431 1430 1428 1428 1427 1426 1425
1449 1451 1453 1455 1456 1456 1456 1456 1456 1457 1458 1458 1457 1457 1458 1458 1459 1458 1458 1457 1456 1454 1453 1451 1449 1448 1446 1444 1442 1441 1439 1437 1435 1434 1432 1431 1429 1428 1427 1426 1424 1423 1422